#timestamp,LO_Frequency,Hit,StdDev 
1603298555.7,286047056.0,P
1603298575.6,286047057.5,P
1603298595.4,286047058.3,P
1603298615.2,286047057.9,Y
1603298635.1,286047002.2,P
1603298636.0,286047002.2,N
1603298655.8,286047002.4,N
1603298675.7,286047001.4,N
1603298695.5,286047001.9,N
1603298715.3,286047002.2,N
1603298735.2,286047004.3,N
1603298755.0,286047005.8,N
1603298755.9,286047005.8,N
1603298775.8,286047004.7,N
1603298795.6,286047003.1,N
1603298815.4,286047004.2,N
1603298835.3,286047003.0,N
1603298855.1,286047004.7,N
1603298856.0,286047004.7,N
1603298875.8,286047007.5,N
1603298895.7,286047006.4,N
1603298915.5,286047008.3,N
1603298935.3,286047012.0,N
1603298955.2,286047009.3,N
1603298975.0,286047010.4,N
1603298975.9,286047010.4,N
1603298995.8,286047009.3,N
1603299015.6,286047012.2,N
1603299035.4,286047011.2,N
1603299055.3,286047015.1,N
1603299075.1,286047017.2,N
1603299095.8,286047015.9,N
1603299115.7,286047016.2,N
1603299135.5,286047018.3,N
1603299155.4,286047018.2,Y
1603299175.2,286047011.9,P
1603299195.0,286047011.0,P
1603299195.9,286047011.0,P
1603299215.8,286047012.3,Y
1603299235.6,286047000.6,P
1603299255.5,286047000.1,N
1603299275.3,286047002.1,N
1603299295.1,286047001.8,N
1603299315.9,286047003.7,N
1603299335.7,286047003.8,N
1603299355.5,286047002.0,N
1603299375.4,286047003.0,N
1603299395.2,286047005.9,N
1603299415.1,286047005.1,N
1603299416.0,286047005.1,N
1603299435.8,286047007.2,N
1603299455.6,286047006.6,N
1603299475.5,286047008.7,Y
1603299495.3,286047005.6,P
1603299515.1,286047003.5,P
1603299535.9,286047005.7,P
1603299555.7,286047003.6,Y
1603299575.6,286047002.3,P
1603299595.4,286047001.5,N
